Flag for Australia Weather past 2 weeks in Uluru, Northern Territory, Australia

Now
70 °F

Clear.


Feels Like: 70 °F
Forecast: 67 / 85 °F
Wind: 7 mph from Southeast

Location: Ayers Rock

Current Time: Dec 26, 2014 at 5:41:31 AM

Latest Report: Dec 26, 2014 at 4:30 AM


Visibility: N/A

Pressure: 29.92 "Hg

Humidity: 29%

Dew point: 36 °F

Location of UluruLocation

Historic Weather in Uluru — Graph

°F

Uluru temperature yesterday

Maximum temperature yesterday: 93 °F (at 4:30 PM)
Minimum temperature yesterday: 66 °F (at 5:30 AM)
Average temperature yesterday: 81 °F

Past Weeks' High & Low Weather Summary

 TemperatureHumidityPressure
High109 °F (Dec 14, 2:30 PM)100% (Dec 18, 4:30 AM)30.04 "Hg (Dec 18, 4:30 AM)
Low66 °F (Dec 12, 5:30 AM)6% (Dec 12, 4:30 PM)29.65 "Hg (Dec 15, 4:30 PM)
Average85 °F42%29.85 "Hg
* Reported Dec 11 3:30 AM — Dec 26 3:30 AM, Uluru, Weather by CustomWeather, © 2014

Note: Actual official high and low records may vary slightly from our data, if they occured in-between our weather recording intervals... More about our weather records

Advertising

Uluru weather history for previous 24 hours

 ConditionsComfort  
Time TempWeatherWind HumidityBarometerVisibility
3:30 AM
Dec 26
72 °FClear.9 mph25%29.92 "HgN/A
2:30 AM73 °FClear.10 mph25%29.92 "HgN/A
1:30 AM75 °FClear.10 mph27%29.92 "HgN/A
12:30 AM77 °FClear.15 mph28%29.92 "HgN/A
11:30 PM
Dec 25
79 °FClear.16 mph26%29.92 "HgN/A
10:30 PM81 °FClear.13 mph21%29.92 "HgN/A
9:30 PM82 °FClear.15 mph23%29.92 "HgN/A
8:30 PM84 °FClear.15 mph23%29.89 "HgN/A
7:30 PM86 °FClear.17 mph22%29.86 "HgN/A
6:30 PM90 °FSunny.15 mph20%29.86 "HgN/A
5:30 PM91 °FScattered clouds.14 mph18%29.83 "HgN/A
4:30 PM93 °FScattered clouds.21 mph17%29.83 "HgN/A
3:30 PM91 °FSunny.13 mph18%29.86 "HgN/A
2:30 PM91 °FScattered clouds.13 mph17%29.86 "HgN/A
1:30 PM91 °FSunny.9 mph18%29.89 "HgN/A
12:30 PM90 °FSunny.13 mph20%29.92 "HgN/A
11:30 AM88 °FSunny.14 mph21%29.95 "HgN/A
10:30 AM84 °FSunny.15 mph22%29.95 "HgN/A
9:30 AM82 °FSunny.13 mph30%29.98 "HgN/A
8:30 AM79 °FSunny.10 mph51%29.98 "HgN/A
7:30 AM75 °FSunny.8 mph61%29.98 "HgN/A
6:30 AM68 °FSunny.7 mph88%29.95 "HgN/A
5:30 AM66 °FSunny.6 mph94%29.92 "HgN/A
Weather by CustomWeather, © 2014

See weather overviewHow to use our weather pages